Location: Unspecified
(58.9933°N, 5.6375°E)
Time: 06:53:27
(UTC+02:00)

Cosmos 1674 - Visible Passes

Search period start: 16 September 2014 00:00
Search period end: 26 September 2014 00:00
Orbit: 514 x 543 km, 82.5° (Epoch: 15 September)

Date Brightness Start Highest point End Pass type
(mag) Time Alt. Az. Time Alt. Az. Time Alt. Az.
16 Sep 3.0 21:57:03 10° N 22:00:53 53° ENE 22:02:20 33° SE visible
16 Sep 4.7 23:33:29 10° NW 23:36:37 23° W 23:37:37 21° WSW visible
17 Sep 3.0 21:46:02 10° N 21:49:52 49° ENE 21:51:31 29° SE visible
17 Sep 4.6 23:22:25 10° NNW 23:25:38 25° W 23:26:48 21° WSW visible
18 Sep 3.1 21:35:01 10° N 21:38:50 47° ENE 21:40:43 26° SE visible
18 Sep 4.6 23:11:21 10° NNW 23:14:39 26° W 23:15:59 21° WSW visible
19 Sep 3.2 21:24:00 10° N 21:27:47 44° ENE 21:29:55 23° SE visible
19 Sep 4.6 23:00:16 10° NNW 23:03:38 28° W 23:05:12 21° SW visible
20 Sep 3.3 21:12:59 10° N 21:16:44 41° ENE 21:19:08 20° SE visible
20 Sep 4.5 22:49:11 10° NNW 22:52:37 29° W 22:54:25 20° SW visible
21 Sep 3.3 21:01:56 10° N 21:05:40 39° ENE 21:08:22 17° SE visible
21 Sep 4.4 22:38:05 10° NNW 22:41:36 31° W 22:43:39 19° SW visible
22 Sep 3.4 20:50:54 10° N 20:54:35 37° ENE 20:57:37 14° SE visible
22 Sep 4.3 22:26:59 10° NNW 22:30:33 33° W 22:32:54 18° SW visible
23 Sep 3.5 20:39:51 10° N 20:43:30 35° ENE 20:46:54 11° SE visible
23 Sep 4.2 22:15:53 10° NNW 22:19:31 35° W 22:22:12 16° SSW visible
24 Sep 3.6 20:28:47 10° N 20:32:24 33° ENE 20:36:01 10° SE visible
24 Sep 4.1 22:04:47 10° NNW 22:08:27 38° W 22:11:31 14° SSW visible
25 Sep 3.6 20:17:44 10° N 20:21:18 31° ENE 20:24:52 10° SE visible
25 Sep 4.0 21:53:40 10° NNW 21:57:23 40° W 22:00:52 11° SSW visible
